{"data":{"norad_id":65511,"epoch":"2026-09-20T01:14:35.992608Z","epoch_age_seconds":150729,"freshness":"FRESH","line1":"1 65511U 25198V   26263.05180547  .00015772  00000+0  47709-3 0  9993","line2":"2 65511  53.1569  83.5344 0000959  82.2103 277.9008 15.34390788 58436","mean_motion":15.34390788,"eccentricity":9.59e-5,"inclination_deg":53.1569,"raan_deg":83.5344,"arg_perigee_deg":82.2103,"mean_anomaly_deg":277.9008,"bstar":0.00047709,"rev_number":5843,"period_min":93.848321513776,"perigee_km":462.07458114464,"apogee_km":463.38665955422,"semimajor_km":6840.8676203494,"source":"CELESTRAK","updated_at":"2026-09-21T09:00:35.645235Z"}}